Regional Weather Roundup
Issued by NWS

Home | Current Version | Previous Version | Graphics & Text | Print | Product List | Glossary On
Versions: 1 2 3 4 5 6 7 8 9 10 11 12 13 14 15 16 17 18 19 20 21 22 23 24 25 26 27 28 29 30 31 32 33 34 35 36 37 38 39 40 41 42 43 44 45 46 47 48 49 50
000
ASUS43 KLSX 210907
RWRMO

WEATHER SUMMARY FOR MISSOURI
NATIONAL WEATHER SERVICE SPRINGFIELD MO
400 AM CDT SAT OCT 21 2017

NOTE: "FAIR" INDICATES FEW OR NO CLOUDS BELOW 12,000 FEET WITH NO
       SIGNIFICANT WEATHER AND/OR OBSTRUCTIONS TO VISIBILITY.
       CURRENT SKY AND/OR WEATHER CONDITIONS ARE NOT AVAILABLE FOR
       CHILLICOTHE AND FARMINGTON.

MOZ001>031-035>038-043-044-053-054-211000-
...NORTHERN AND WESTERN MISSOURI...

CITY           SKY/WX    TMP DP  RH WIND       PRES   REMARKS
KANSAS CTY INT CLEAR     64  57  78 S26G33    29.80F
KANSAS C DTWN  CLEAR     66  58  75 S10G24    29.83F
LEE`S SUMMIT   CLEAR     63  57  81 S21G30    29.85F
ST JOSEPH      LGT RAIN  66  59  78 S20G30    29.78F
CHILLICOTHE      N/A     64  58  80 S10G21    29.87F
KIRKSVILLE     MOCLDY    62  57  83 S13       29.91F

$$
MOZ066>068-077>081-088>096-101>105-211000-
...SOUTHWEST MISSOURI...

CITY           SKY/WX    TMP DP  RH WIND       PRES   REMARKS
SPRINGFIELD    PTCLDY    62  57  83 S16G28    29.96F
BRANSON        CLOUDY    63  55  77 S8        30.02S

$$
MOZ032>034-039>042-045>050-055>058-069>072-211000-
...CENTRAL MISSOURI...

CITY           SKY/WX    TMP DP  RH WIND       PRES   REMARKS
COLUMBIA       MOCLDY    62  56  80 S12       29.96F
JEFFERSON CITY PTCLDY    63  53  70 SE7       29.97F
ROLLA          MOCLDY    63  54  72 S13       30.01F
SEDALIA        CLEAR     64  58  80 S17       29.92F
WHITEMAN AFB   CLEAR     63  56  79 S15G23    29.85F
WARRENSBURG    CLEAR     63  55  77 SE13G18   29.88F
OSAGE BEACH    MOCLDY    65  55  70 S10       29.98F

$$
MOZ051-052-059>065-211000-
...EAST CENTRAL MISSOURI...

CITY           SKY/WX    TMP DP  RH WIND       PRES   REMARKS
ST LOUIS INTL  CLOUDY    63  53  70 E7        30.05R
SPIRIT OF STL  MOCLDY    65  53  65 E3        30.02F
ST CHARLES     MOCLDY    60  53  77 E9        30.03S

$$
MOZ072>076-082>087-097>100-106>115-211000-
...SOUTH CENTRAL AND SOUTHEAST MISSOURI...

CITY           SKY/WX    TMP DP  RH WIND       PRES   REMARKS
CAPE GIRARDEAU CLOUDY    58  49  72 S6        30.08F
FARMINGTON     CLOUDY    63  52  67 S9        30.07R
POPLAR BLUFF   CLOUDY    60  54  80 S6        30.07F
WEST PLAINS    CLOUDY    61  55  81 SE8       30.06F

$$



USA.gov is the U.S. government's official web portal to all federal, state and local government web resources and services.